Location: 3 Angels Observatory
(30.5437°N, 88.5068°W)
Time: 09:47:05
(UTC-05:00)

Daily predictions for brighter satellites

Satellite Brightness Start Highest point End
(mag) Time Altitude Azimuth Time Altitude Azimuth Time Altitude Azimuth
Cosmos 858 Rocket 4.5 18:57:14 10° NNW 19:02:29 74° ENE 19:07:40 10° SSE
Cosmos 2150 Rocket 4.2 18:59:27 10° N 19:04:45 57° ENE 19:10:05 10° SSE
Cosmos 540 Rocket 3.8 19:01:32 10° S 19:06:17 41° E 19:11:03 10° NNE
NOSS 3-1 (C) 4.5 18:59:05 10° NNW 19:06:35 46° ENE 19:14:41 10° SE
USA 81 4.4 19:04:26 10° NNE 19:09:28 45° E 19:14:30 10° SSE
Cosmos 1937 Rocket 3.5 19:04:21 10° NNW 19:09:38 73° ENE 19:14:50 10° SSE
COSMO-SKYMED 1 3.2 19:06:06 10° N 19:10:24 62° WNW 19:14:39 10° SSW
Cosmos 1726 Rocket 3.9 19:07:00 10° SSW 19:11:21 72° W 19:15:40 10° N
SL-27 R/B 3.9 19:09:38 10° SE 19:12:08 18° E 19:14:40 10° NE
Cosmos 1758 Rocket 3.6 19:10:00 10° N 19:14:30 80° E 19:18:58 10° S
Cosmos 2369 Rocket 4.0 19:10:38 10° NW 19:15:44 36° WSW 19:20:47 10° S
Cosmos 1378 3.2 19:12:29 10° N 19:16:12 56° E 19:19:53 10° SSE
Cosmos 304 Rocket 4.2 19:12:14 10° SSW 19:16:58 69° WNW 19:21:46 10° N
COSMOS 2406 3.2 19:12:41 10° SSW 19:18:21 79° ESE 19:24:05 10° NNE
Meteor 1-22 Rocket 4.3 19:17:13 10° S 19:22:49 56° E 19:28:13 10° NNE
Cosmos 1707 2.7 19:19:58 10° N 19:23:54 85° E 19:27:49 10° S
SJ 16-02 3.2 19:22:38 10° NE 19:24:08 12° ENE 19:24:57 11° ENE
Cosmos 1766 3.5 19:21:40 10° SSE 19:25:26 47° E 19:29:12 10° NNE
Cosmos 1356 Rocket 3.8 19:23:32 10° N 19:27:39 44° E 19:31:45 10° SSE
Cosmos 2228 3.5 19:25:30 10° SSW 19:29:49 67° W 19:34:09 10° N
Cosmos 2298 Rocket 4.5 19:25:31 10° NNW 19:30:49 68° WSW 19:36:05 10° S
Meteor 2-5 Rocket 3.7 19:28:15 10° N 19:34:03 83° E 19:39:43 10° S
Cosmos 2181 Rocket 4.2 19:28:09 10° N 19:34:17 77° W 19:40:22 10° S
ISS -2.2 19:33:19 10° WSW 19:36:20 34° NW 19:39:22 10° NNE
ALOS 2.2 19:32:22 10° SSE 19:37:01 82° ENE 19:41:42 10° N
Cosmos 2074 Rocket 3.9 19:31:05 10° S 19:37:17 79° E 19:43:29 10° N
Cosmos 2154 Rocket 4.4 19:32:12 10° SSE 19:37:49 37° E 19:43:29 10° NNE
Cosmos 1758 3.8 19:47:06 10° SSE 19:50:46 35° E 19:54:26 10° NNE
Cosmos 1812 Rocket 3.5 19:48:09 10° S 19:52:31 60° E 19:56:55 10° NNE
FREGAT/IRIS 2.5 19:51:02 10° SSE 19:54:03 87° ENE 19:57:05 10° N
Cosmos 2082 Rocket 3.5 19:50:49 10° SSE 19:53:28 20° SE 19:53:28 20° SE
Cosmos 1805 3.1 19:51:49 10° S 19:55:40 67° E 19:59:32 10° NNE
ATLAS 3B CENTAUR R/B 4.3 19:48:52 10° WSW 19:57:23 77° SSE 20:14:13 22° E
ATLAS 5 CENTAUR R/B 2.4 19:53:50 10° S 19:57:40 29° ESE 19:57:40 29° ESE
USA 234 3.4 19:52:14 10° SE 19:58:47 75° SW 20:05:21 10° NW
Meteor 2-8 Rocket 4.4 19:52:52 10° N 19:58:54 59° E 20:04:52 10° SSE
Resurs 01 Rocket 2.6 20:01:55 28° ENE 20:01:55 28° ENE 20:05:22 10° NNE
CZ-2D R/B 4.0 20:04:04 33° ENE 20:04:04 33° ENE 20:07:03 10° N
Meteor 2-19 Rocket 4.3 19:59:05 10° S 20:05:06 78° E 20:11:09 10° N
GP-B 3.3 20:02:58 10° NNE 20:07:14 46° E 20:08:55 31° SE
ATLAS CENTAUR R/B 2.7 19:57:59 10° NW 20:08:32 77° NE 20:10:27 35° SE
Cosmos 783 Rocket 4.5 20:05:35 10° SSW 20:10:47 86° WNW 20:15:59 10° NNE
Nadezhda 3 Rocket 4.0 20:07:23 10° N 20:13:30 53° E 20:17:42 20° SSE
Cosmos 372 Rocket 3.9 20:13:54 10° N 20:19:09 71° ENE 20:21:22 35° SSE
Yuri Rocket 3.0 20:14:47 10° W 20:19:36 66° S 20:20:14 57° SE
Cosmos 2285 Rocket 4.0 20:13:33 10° S 20:19:47 57° ESE 20:26:04 10° NNE
Lacrosse 4 Rocket 3.8 20:16:42 10° S 20:17:07 12° S 20:17:07 12° S
Geosat 4.1 20:19:20 18° SSE 20:23:02 74° WSW 20:28:04 10° NNW
Envisat 3.5 20:24:15 40° NE 20:24:15 40° NE 20:28:26 10° N
Cosmos 1295 Rocket 4.4 20:18:18 10° S 20:24:15 57° E 20:30:11 10° NNE
Cosmos 1125 Rocket 3.4 20:19:00 10° NNW 20:24:19 88° WSW 20:27:19 27° SSE
Cosmos 1356 4.2 20:22:31 10° N 20:25:00 44° N 20:25:00 44° N
Cosmos 1066 4.5 20:23:02 10° N 20:28:29 73° E 20:30:34 39° SSE
OAO 3 Rocket 3.1 20:24:05 10° WSW 20:28:54 63° SSE 20:29:00 63° SSE
Gbstr 26 Del rocket 3.3 20:25:07 10° SW 20:29:49 76° SE 20:31:04 53° ENE
H-2A R/B 4.3 20:29:45 10° SSW 20:33:07 33° W 20:36:33 10° NNW
SJ-6B 4.1 20:31:26 10° S 20:35:11 40° W 20:38:54 10° NNW
SL-8 Rocket 4.4 20:38:36 42° NE 20:38:36 42° NE 20:43:03 10° NNE
ATLAS 2AS CENTAUR R/B 3.9 20:34:04 10° N 20:40:36 28° NE 20:40:36 28° NE
Cosmos 1953 3.0 20:37:22 10° SSW 20:41:19 54° W 20:45:18 10° N
BREEZE M DEB (TANK) 4.4 20:45:22 10° NW 20:47:45 27° NNW 20:47:45 27° NNW
NOSS 3-3 (A) 3.8 20:48:10 10° SSW 20:54:09 88° WNW 20:55:46 53° NNE
NOSS 3-3 (C) 3.8 20:48:16 10° SSW 20:54:15 89° NW 20:55:39 57° NNE
SJ 16-02 2.6 20:58:45 10° NNW 21:02:00 38° WNW 21:02:00 38° WNW
Delta 2 Rocket 4.5 20:59:42 10° W 21:08:17 62° S 21:08:32 61° S
Cosmos 1833 Rocket 4.0 21:06:49 10° SSW 21:20:14 - NNE 21:09:31 29° SW
Milstar 3 Cent rocket 3.5 21:16:32 10° W 21:19:07 30° WSW 21:19:07 30° WSW
Centaur D AC-29 3.1 21:19:05 10° WSW 21:24:06 33° WSW 21:24:06 33° WSW
Resurs 01 Rocket 4.3 21:39:30 16° WNW 21:39:30 16° WNW 21:41:11 10° NW
FALCON 9 R/B 3.6 21:34:13 10° WNW 21:36:10 34° WNW 21:36:10 34° WNW
Cosmos 2082 Rocket 4.2 21:33:38 10° SW 21:45:39 - N 21:35:35 20° WSW
ATLAS 5 CENTAUR R/B 4.5 21:38:39 10° WSW 21:39:22 13° W 21:39:22 13° W
ATLAS 2AS CENTAUR R/B 4.5 22:24:28 10° NW 22:28:02 29° NW 22:28:02 29° NW
